When you browse on this site, cookies collect data to enhance your experience and personalize the content and advertising you see.
Visit our Privacy Policy to learn more. By continuing to use the site, you agree to this use of cookies and data.
  • In Österreich
  • Länderverzeichnis
  • Für 7 Tage
  • Wassertemperatur
  • Wetterkarte
  • News
  • Widgets
  • user-avatar
    Anmelden

    Stündliche Wetter Ulsan

    Heute, 5 April, Sonntag

    Zeit Temperatur Niederschläge Wind Luftdruck Luftfeuchtigkeit
    00:00 +5°C° 0.1 mm 3 m/S 755 mmHg 81%
    01:00 +5°C° 0.1 mm 3 m/S 755 mmHg 80%
    02:00 +5°C° 0.1 mm 3 m/S 755 mmHg 78%
    03:00 +4°C° 0 mm 3 m/S 755 mmHg 76%
    04:00 +4°C° 0 mm 3 m/S 755 mmHg 76%
    05:00 +4°C° 0 mm 2 m/S 756 mmHg 76%
    06:00 +4°C° 0 mm 2 m/S 756 mmHg 75%
    07:00 +5°C° 0 mm 2 m/S 756 mmHg 65%
    08:00 +7°C° 0 mm 2 m/S 756 mmHg 55%
    09:00 +10°C° 0 mm 1 m/S 756 mmHg 42%
    10:00 +11°C° 0 mm 1 m/S 756 mmHg 37%
    11:00 +13°C° 0 mm 1 m/S 756 mmHg 33%
    12:00 +14°C° 0 mm 1 m/S 756 mmHg 29%
    13:00 +14°C° 0 mm 2 m/S 756 mmHg 29%
    14:00 +13°C° 0 mm 3 m/S 755 mmHg 29%
    15:00 +13°C° 0 mm 3 m/S 755 mmHg 29%
    16:00 +12°C° 0 mm 3 m/S 755 mmHg 33%
    17:00 +11°C° 0 mm 3 m/S 755 mmHg 36%
    18:00 +12°C° 0 mm 2 m/S 755 mmHg 40%
    19:00 +10°C° 0 mm 2 m/S 756 mmHg 43%
    20:00 +9°C° 0 mm 2 m/S 756 mmHg 45%
    21:00 +8°C° 0 mm 2 m/S 757 mmHg 48%
    22:00 +7°C° 0 mm 2 m/S 757 mmHg 48%
    23:00 +8°C° 0 mm 1 m/S 757 mmHg 48%

    Morgen, 6 April, Montag

    Zeit Temperatur Niederschläge Wind Luftdruck Luftfeuchtigkeit
    00:00 +8°C° 0 mm 1 m/S 757 mmHg 48%
    01:00 +7°C° 0 mm 1 m/S 757 mmHg 47%
    02:00 +7°C° 0 mm 1 m/S 756 mmHg 45%
    03:00 +6°C° 0 mm 1 m/S 756 mmHg 44%
    04:00 +6°C° 0 mm 1 m/S 756 mmHg 43%
    05:00 +6°C° 0 mm 1 m/S 756 mmHg 42%
    06:00 +5°C° 0 mm 1 m/S 757 mmHg 40%
    07:00 +8°C° 0 mm 1 m/S 756 mmHg 36%
    08:00 +10°C° 0 mm 1 m/S 756 mmHg 33%
    09:00 +12°C° 0 mm 1 m/S 756 mmHg 29%
    10:00 +13°C° 0 mm 2 m/S 756 mmHg 27%
    11:00 +15°C° 0 mm 2 m/S 756 mmHg 26%
    12:00 +16°C° 0 mm 3 m/S 756 mmHg 24%
    13:00 +15°C° 0 mm 4 m/S 755 mmHg 26%
    14:00 +15°C° 0 mm 4 m/S 755 mmHg 28%
    15:00 +15°C° 0 mm 5 m/S 754 mmHg 29%
    16:00 +15°C° 0 mm 5 m/S 754 mmHg 32%
    17:00 +14°C° 0 mm 4 m/S 754 mmHg 36%
    18:00 +14°C° 0 mm 3 m/S 754 mmHg 39%
    19:00 +13°C° 0 mm 3 m/S 754 mmHg 41%
    20:00 +12°C° 0 mm 3 m/S 754 mmHg 43%
    21:00 +11°C° 0 mm 3 m/S 754 mmHg 45%
    22:00 +10°C° 0 mm 3 m/S 754 mmHg 47%
    23:00 +10°C° 0 mm 2 m/S 754 mmHg 48%

    übermorgen, 7 April, Dienstag

    Zeit Temperatur Niederschläge Wind Luftdruck Luftfeuchtigkeit
    00:00 +10°C° 0 mm 2 m/S 753 mmHg 49%
    01:00 +9°C° 0 mm 2 m/S 753 mmHg 50%
    02:00 +9°C° 0 mm 2 m/S 753 mmHg 50%
    03:00 +9°C° 0 mm 2 m/S 752 mmHg 50%
    04:00 +8°C° 0 mm 2 m/S 752 mmHg 49%
    05:00 +8°C° 0 mm 2 m/S 752 mmHg 48%
    06:00 +8°C° 0 mm 2 m/S 752 mmHg 48%
    07:00 +10°C° 0 mm 2 m/S 752 mmHg 44%
    08:00 +11°C° 0 mm 3 m/S 752 mmHg 41%
    09:00 +13°C° 0 mm 3 m/S 752 mmHg 38%
    10:00 +16°C° 0 mm 3 m/S 752 mmHg 37%
    11:00 +17°C° 0 mm 3 m/S 752 mmHg 37%
    12:00 +19°C° 0 mm 4 m/S 752 mmHg 36%
    13:00 +19°C° 0 mm 4 m/S 751 mmHg 36%
    14:00 +20°C° 0 mm 5 m/S 751 mmHg 36%
    15:00 +20°C° 0 mm 5 m/S 750 mmHg 35%
    16:00 +20°C° 0 mm 5 m/S 750 mmHg 39%
    17:00 +19°C° 0 mm 4 m/S 750 mmHg 42%
    18:00 +18°C° 0 mm 4 m/S 750 mmHg 45%
    19:00 +17°C° 0 mm 4 m/S 750 mmHg 48%
    20:00 +14°C° 0 mm 3 m/S 751 mmHg 52%
    21:00 +13°C° 0 mm 3 m/S 751 mmHg 55%
    22:00 +12°C° 0 mm 3 m/S 751 mmHg 57%
    23:00 +12°C° 0 mm 2 m/S 751 mmHg 60%

    8 April, Mittwoch

    Zeit Temperatur Niederschläge Wind Luftdruck Luftfeuchtigkeit
    00:00 +12°C° 0 mm 2 m/S 751 mmHg 62%
    01:00 +10°C° 0 mm 2 m/S 751 mmHg 62%
    02:00 +10°C° 0 mm 3 m/S 751 mmHg 62%
    03:00 +9°C° 0 mm 3 m/S 751 mmHg 63%
    04:00 +8°C° 0 mm 3 m/S 751 mmHg 59%
    05:00 +8°C° 0 mm 3 m/S 752 mmHg 56%
    06:00 +7°C° 0 mm 3 m/S 752 mmHg 52%
    07:00 +8°C° 0 mm 3 m/S 752 mmHg 45%
    08:00 +10°C° 0 mm 4 m/S 753 mmHg 39%
    09:00 +11°C° 0 mm 4 m/S 753 mmHg 32%
    10:00 +12°C° 0 mm 4 m/S 753 mmHg 29%
    11:00 +13°C° 0 mm 4 m/S 753 mmHg 27%
    12:00 +14°C° 0 mm 5 m/S 754 mmHg 24%
    13:00 +14°C° 0 mm 5 m/S 753 mmHg 23%
    14:00 +15°C° 0 mm 5 m/S 753 mmHg 23%
    15:00 +15°C° 0 mm 5 m/S 753 mmHg 23%
    16:00 +14°C° 0 mm 4 m/S 753 mmHg 25%
    17:00 +14°C° 0 mm 4 m/S 754 mmHg 27%
    18:00 +13°C° 0 mm 4 m/S 754 mmHg 29%
    19:00 +12°C° 0 mm 4 m/S 754 mmHg 33%
    20:00 +10°C° 0 mm 3 m/S 755 mmHg 36%
    21:00 +9°C° 0 mm 3 m/S 755 mmHg 39%
    22:00 +8°C° 0 mm 3 m/S 755 mmHg 40%
    23:00 +8°C° 0 mm 3 m/S 755 mmHg 41%

    9 April, Donnerstag

    Zeit Temperatur Niederschläge Wind Luftdruck Luftfeuchtigkeit
    00:00 +7°C° 0 mm 2 m/S 755 mmHg 42%
    01:00 +7°C° 0 mm 3 m/S 755 mmHg 42%
    02:00 +5°C° 0 mm 3 m/S 755 mmHg 42%
    03:00 +5°C° 0 mm 3 m/S 755 mmHg 42%
    04:00 +5°C° 0 mm 3 m/S 756 mmHg 43%
    05:00 +4°C° 0 mm 3 m/S 756 mmHg 45%
    06:00 +4°C° 0 mm 3 m/S 756 mmHg 46%
    07:00 +7°C° 0 mm 3 m/S 756 mmHg 42%
    08:00 +7°C° 0 mm 4 m/S 757 mmHg 39%
    09:00 +9°C° 0 mm 5 m/S 757 mmHg 35%
    10:00 +11°C° 0 mm 4 m/S 757 mmHg 31%
    11:00 +13°C° 0 mm 3 m/S 757 mmHg 27%
    12:00 +15°C° 0 mm 2 m/S 757 mmHg 24%
    13:00 +14°C° 0 mm 3 m/S 757 mmHg 24%
    14:00 +16°C° 0 mm 3 m/S 756 mmHg 24%
    15:00 +16°C° 0 mm 3 m/S 756 mmHg 24%
    16:00 +16°C° 0 mm 3 m/S 756 mmHg 30%
    17:00 +14°C° 0 mm 4 m/S 756 mmHg 35%
    18:00 +13°C° 0 mm 4 m/S 757 mmHg 40%
    19:00 +12°C° 0 mm 4 m/S 757 mmHg 42%
    20:00 +11°C° 0 mm 3 m/S 758 mmHg 44%
    21:00 +10°C° 0 mm 2 m/S 758 mmHg 46%
    22:00 +9°C° 0 mm 2 m/S 758 mmHg 49%
    23:00 +9°C° 0 mm 2 m/S 758 mmHg 52%

    10 April, Freitag

    Zeit Temperatur Niederschläge Wind Luftdruck Luftfeuchtigkeit
    00:00 +8°C° 0 mm 2 m/S 758 mmHg 55%
    01:00 +8°C° 0 mm 2 m/S 758 mmHg 55%
    02:00 +8°C° 0 mm 2 m/S 758 mmHg 56%
    03:00 +7°C° 0 mm 2 m/S 758 mmHg 56%
    04:00 +7°C° 0 mm 2 m/S 758 mmHg 54%
    05:00 +7°C° 0 mm 2 m/S 758 mmHg 52%
    06:00 +7°C° 0 mm 2 m/S 758 mmHg 50%
    07:00 +9°C° 0 mm 2 m/S 758 mmHg 46%
    08:00 +10°C° 0 mm 2 m/S 758 mmHg 42%
    09:00 +13°C° 0 mm 2 m/S 758 mmHg 38%
    10:00 +14°C° 0 mm 2 m/S 758 mmHg 34%
    11:00 +15°C° 0 mm 2 m/S 757 mmHg 30%
    12:00 +16°C° 0 mm 2 m/S 757 mmHg 26%
    13:00 +16°C° 0 mm 2 m/S 756 mmHg 27%
    14:00 +17°C° 0 mm 3 m/S 756 mmHg 28%
    15:00 +17°C° 0 mm 3 m/S 756 mmHg 28%
    16:00 +16°C° 0 mm 3 m/S 755 mmHg 32%
    17:00 +16°C° 0 mm 3 m/S 755 mmHg 36%
    18:00 +14°C° 0 mm 3 m/S 755 mmHg 40%
    19:00 +14°C° 0 mm 2 m/S 755 mmHg 42%
    20:00 +13°C° 0 mm 2 m/S 756 mmHg 45%
    21:00 +12°C° 0 mm 2 m/S 756 mmHg 47%
    22:00 +10°C° 0 mm 2 m/S 756 mmHg 48%
    23:00 +9°C° 0 mm 3 m/S 756 mmHg 50%
    Mehr zeigen